Home   Weather   Syracuse   Past weeks

Flag for USA Past Weather in Syracuse, New York, USA — Yesterday and Last 2 Weeks

41 °F

Mostly cloudy.

Feels Like: 36 °F
Forecast: 38 / 44 °F
Wind: 8 mph from Northwest

Location: Syracuse Hancock International Airport

Current Time: Oct 25, 2016 at 8:07:05 AM

Latest Report: Oct 25, 2016 at 6:54 AM

Visibility: 10 mi

Pressure: 30.18 "Hg

Humidity: 65%

Dew Point: 30 °F

Location of SyracuseLocation

Past Weather in Syracuse — Graph


Syracuse Temperature Yesterday

Maximum temperature yesterday: 48 °F (at 12:54 AM)
Minimum temperature yesterday: 42 °F (at 11:54 PM)
Average temperature yesterday: 46 °F

High & Low Weather Summary for the Past Weeks

High82 °F (Oct 18, 2:54 PM)100% (Oct 14, 5:54 AM)30.45 "Hg (Oct 14, 5:54 AM)
Low34 °F (Oct 11, 6:54 AM)37% (Oct 15, 2:54 PM)29.56 "Hg (Oct 22, 3:54 PM)
Average53 °F78%30.01 "Hg
* Reported Oct 10 6:54 AM — Oct 25 6:54 AM, Syracuse, Weather by CustomWeather, © 2016

Note: Actual official high and low records may vary slightly from our data, if they occured in-between our weather recording intervals... More about our weather records


Syracuse Weather History for the Previous 24 Hours

Scroll right to see more
Time TempWeatherWind HumidityBarometerVisibility
6:54 AM
Tue, Oct 25
41 °FMostly cloudy.8 mph65%30.18 "Hg10 mi
5:54 AM42 °FOvercast.10 mph62%30.17 "Hg10 mi
4:54 AM42 °FOvercast.7 mph60%30.15 "Hg10 mi
3:54 AM41 °FOvercast.6 mph62%30.15 "Hg10 mi
2:54 AM42 °FOvercast.12 mph55%30.15 "Hg10 mi
1:54 AM43 °FOvercast.10 mph56%30.14 "Hg10 mi
12:54 AM39 °FPassing clouds.7 mph70%30.14 "Hg10 mi
11:54 PM
Mon, Oct 24
42 °FPassing clouds.9 mph62%30.14 "Hg10 mi
10:54 PM44 °FPassing clouds.10 mph58%30.14 "Hg10 mi
9:54 PM44 °FPassing clouds.13 mph63%30.12 "Hg10 mi
8:54 PM46 °FOvercast.18 mph61%30.10 "Hg10 mi
7:54 PM44 °FLight rain. Partly cloudy.10 mph76%30.08 "Hg10 mi
6:54 PM45 °FPartly cloudy.14 mph65%30.07 "Hg10 mi
5:54 PM47 °FPartly sunny.16 mph59%30.06 "Hg10 mi
4:54 PM47 °FPartly sunny.20 mph59%30.04 "Hg10 mi
3:54 PM46 °FBroken clouds.23 mph58%30.03 "Hg10 mi
2:54 PM46 °FMostly cloudy.16 mph61%30.01 "Hg10 mi
1:54 PM46 °FMostly cloudy.20 mph61%30.00 "Hg10 mi
12:54 PM46 °FMostly cloudy.21 mph63%29.99 "Hg10 mi
11:54 AM45 °FOvercast.20 mph65%29.99 "Hg10 mi
10:54 AM46 °FOvercast.18 mph63%29.98 "Hg10 mi
9:54 AM46 °FBroken clouds.20 mph63%29.96 "Hg10 mi
8:54 AM47 °FPartly sunny.15 mph66%29.95 "Hg10 mi
Weather by CustomWeather, © 2016

See weather overviewHow to use our weather pages